Main page
METAR-TAF:

METAR-TAF

Airports :

Bandar Lengeh Airport

Bandar Lengeh, Iran

latitude: 26-35N, longitude: 054-50E, elevation: 14 m

Current weather observation

The report was made 54 minutes ago, at 00:00 UTC
Wind 4 kt from the Northwest
Temperature 21°C
Humidity 64%
Pressure 1014 hPa
Visibility 10 km or more
no clouds below 1500 m and no cumulonimbus

METAR: OIBL 210000Z 31004KT CAVOK 21/14 Q1014

Time: 04:24 (00:54 UTC)


TAF: missing

Weather observations and forecasts of more than 4000 airports (METAR and TAF reports).

The available stations are represented by yellow and red dots on the map.

Hover mouse over dot to see the name of the station.

Then click to see weather observations and forecasts.

To change the map : click on the green buttons with a black cross to zoom in, on the green button with a dash to zoom out, or on the green arrows for adjacent maps.


METAR-TAF: